Accueil
METAR-TAF:

METAR-TAF

Aéroports :

Bowers Field

Ellensburg, Washington, États-Unis

latitude: 47-02-01N, longitude: 120-31-45W, altitude: 536 m

Observation

Le bulletin a été fait il y a 21 minutes, à 02:34 UTC
Vent 5 kt de nord/nord-ouest
Température 23°C
Humidité 41%
Pression 1015 hPa
Visibilité: 1.6 km
Ciel couvert à une hauteur de 3000 ft
brume sèche

METAR: KELN 200234Z AUTO 34005KT 1SM HZ OVC030 23/09 A2996 RMK AO2 T02330089

Heure: 19:55 (02:55 UTC)


TAF: absent

Observations et prévisions météorologiques de plus de 4000 aéroports (messages METAR et TAF).

Les stations disponibles sont représentées par des disques jaunes et rouges sur la carte.

Passer la souris dessus pour voir le nom de la station.

Cliquer dessus pour voir les observations et prévisions météorologiques.

Pour changer de carte: cliquez sur les boutons verts avec une croix noire pour zoomer, sur le bouton vert avec un tiret pour effectuer un zoom arrière, ou sur les flèches vertes pour les cartes adjacentes.


METAR-TAF: